Wenatchee, WA
on Wednesday, January 30, 2013

Wednesday
Previous Day Next Day
Daily Summary
 ActualAverageRecord
Temperature
Mean Temperature °F 29°F  
Max Temperature 53°F 35°F 58°F (1989)
Min Temperature 34°F 23°F -12°F (1996)
Degree Days
Heating Degree Days 21 36  
Month to date heating degree days 1161 1124  
Since 1 July heating degree days 3328 4222  
Cooling Degree Days 0 0  
Month to date cooling degree days 0 0  
Year to date cooling degree days 0 0  
Moisture
Dew Point 30°F   
Average Humidity 58    
Maximum Humidity 75    
Minimum Humidity 41    
Precipitation
Precipitation 0.00 in 0.04 in 0.28 in (1995)
Month to date precipitation 0.19 1.82  
Year to date precipitation 0.19 1.82  
Snow
Snow 0.00 in 0.30 in in ()
Month to date snowfall 15.1  
Since 1 July snowfall 40.0  
Snow Depth in   
Wind
Wind Speed 13 mph   
Max Wind Speed 31 mph   
Max Gust Speed 38 mph   
Visibility 10 miles   
Events     

Key: T is trace of precipitation, MM is missing value
Source: NWS Daily Summary
Time(PST)TemperatureDew PointHumidity Pressure Visibility Wind DirectionWind SpeedGust SpeedPrecipitationEvents Conditions
12:55 AM 36.0°F 27.0°F 70% 30.15 in 10.0 miles Calm Calm - N/A   Clear
1:55 AM 37.9°F 28.0°F 68% 30.15 in 10.0 miles SW 4.6 mph - N/A   Clear
2:29 AM 42.8°F 28.4°F 57% 30.13 in 10.0 miles WNW 19.6 mph - N/A   Clear
2:55 AM 44.1°F 30.0°F 58% 30.15 in 10.0 miles WNW 19.6 mph - N/A   Clear
5:55 AM 44.1°F 30.0°F 58% 30.13 in 10.0 miles WNW 28.8 mph - N/A   Clear
6:55 AM 44.1°F 30.0°F 58% 30.13 in 10.0 miles WNW 24.2 mph - N/A   Clear
7:55 AM 43.0°F 30.9°F 62% 30.15 in 10.0 miles WNW 20.7 mph - N/A   Clear
8:55 AM 45.0°F 30.9°F 58% 30.14 in 10.0 miles WNW 20.7 mph - N/A   Clear
9:55 AM 46.9°F 30.9°F 54% 30.16 in 10.0 miles WNW 20.7 mph - N/A   Clear
10:55 AM 46.9°F 30.9°F 54% 30.17 in 10.0 miles WNW 17.3 mph - N/A   Clear
11:55 AM 48.0°F 30.9°F 52% 30.17 in 10.0 miles WNW 8.1 mph - N/A   Clear
12:55 PM 51.1°F 30.9°F 46% 30.17 in 10.0 miles Calm Calm - N/A   Clear
1:55 PM 50.0°F 32.0°F 50% 30.17 in 10.0 miles SE 10.4 mph - N/A   Clear
2:55 PM 51.1°F 32.0°F 48% 30.17 in 10.0 miles Calm Calm - N/A   Clear
3:55 PM 51.1°F 32.0°F 48% 30.19 in 10.0 miles Calm Calm - N/A   Clear
4:55 PM 51.1°F 28.9°F 43% 30.19 in 10.0 miles SW 8.1 mph - N/A   Clear
5:55 PM 48.0°F 28.9°F 48% 30.22 in 10.0 miles West 8.1 mph - N/A   Clear
6:55 PM 45.0°F 28.9°F 53% 30.23 in 10.0 miles NW 10.4 mph - N/A   Clear
8:55 PM 44.1°F 30.0°F 58% 30.24 in 10.0 miles NW 11.5 mph - N/A   Clear
9:55 PM 45.0°F 30.0°F 56% 30.24 in 10.0 miles NW 13.8 mph - N/A   Scattered Clouds
10:55 PM 42.1°F 30.0°F 62% 30.24 in 10.0 miles WNW 11.5 mph - N/A   Scattered Clouds
11:55 PM 43.0°F 30.0°F 60% 30.23 in 10.0 miles NW 15.0 mph - N/A   Clear
Moon Phase
Jan. 30 Feb. 03 Feb. 10 Feb. 17 Feb. 25
Sunrise:07:28 AM (PST) Moon Rise:09:25 PM (PST)1/30
Sunset:05:00 PM (PST) Moon Set:08:40 AM (PST)1/30

Copyright © 2014 The Weather Underground, Inc.